Time,TemperatureF,DewpointF,PressureIn,WindDirection,WindDirectionDegrees,WindSpeedMPH,WindSpeedGustMPH,Humidity,HourlyPrecipIn,Conditions,Clouds,dailyrainin,SoftwareType,DateUTC
2013-08-02 00:09:00,77.7,74.0,29.90,SW,214,0.0,0.0,87,0.00,,,0.00,weatherlink.com 1.10,2013-08-02 04:09:00,
2013-08-02 00:25:00,77.7,74.0,29.90,SSW,201,0.0,0.0,87,0.00,,,0.00,weatherlink.com 1.10,2013-08-02 04:25:00,
2013-08-02 00:40:00,77.7,74.0,29.90,SSE,166,1.0,2.0,87,0.00,,,0.00,weatherlink.com 1.10,2013-08-02 04:40:00,
2013-08-02 00:55:00,77.7,74.0,29.89,South,169,0.0,0.0,87,0.00,,,0.00,weatherlink.com 1.10,2013-08-02 04:55:00,
2013-08-02 01:10:00,77.5,74.0,29.89,South,169,0.0,1.0,88,0.00,,,0.00,weatherlink.com 1.10,2013-08-02 05:10:00,
2013-08-02 01:25:00,77.5,74.0,29.89,South,179,0.0,3.0,89,0.00,,,0.00,weatherlink.com 1.10,2013-08-02 05:25:00,
2013-08-02 01:40:00,77.2,74.0,29.89,SSE,163,1.0,1.0,89,0.00,,,0.00,weatherlink.com 1.10,2013-08-02 05:40:00,
2013-08-02 01:55:00,77.1,74.0,29.89,SSE,153,0.0,2.0,89,0.00,,,0.00,weatherlink.com 1.10,2013-08-02 05:55:00,
2013-08-02 02:10:00,77.5,74.0,29.88,SE,136,1.0,1.0,88,0.00,,,0.00,weatherlink.com 1.10,2013-08-02 06:10:00,
2013-08-02 02:25:00,77.2,74.0,29.88,SSE,162,1.0,3.0,89,0.00,,,0.00,weatherlink.com 1.10,2013-08-02 06:25:00,
2013-08-02 02:40:00,77.5,74.0,29.88,SE,129,1.0,1.0,89,0.00,,,0.00,weatherlink.com 1.10,2013-08-02 06:40:00,
2013-08-02 02:55:00,77.4,74.0,29.88,SE,139,0.0,1.0,89,0.00,,,0.00,weatherlink.com 1.10,2013-08-02 06:55:00,
2013-08-02 03:12:00,77.4,74.0,29.88,ENE,78,0.0,0.0,90,0.00,,,0.00,weatherlink.com 1.10,2013-08-02 07:12:00,
2013-08-02 03:27:00,77.3,74.0,29.88,ENE,63,0.0,0.0,90,0.00,,,0.00,weatherlink.com 1.10,2013-08-02 07:27:00,
2013-08-02 03:40:00,77.2,74.0,29.87,ENE,68,0.0,0.0,90,0.00,,,0.00,weatherlink.com 1.10,2013-08-02 07:40:00,
2013-08-02 03:57:00,77.0,74.0,29.87,SSE,163,0.0,0.0,90,0.00,,,0.00,weatherlink.com 1.10,2013-08-02 07:57:00,
2013-08-02 04:12:00,76.8,74.0,29.86,SSE,155,0.0,3.0,90,0.00,,,0.00,weatherlink.com 1.10,2013-08-02 08:12:00,
2013-08-02 04:27:00,76.8,74.0,29.85,South,172,0.0,0.0,91,0.00,,,0.00,weatherlink.com 1.10,2013-08-02 08:27:00,
2013-08-02 04:42:00,76.7,74.0,29.85,SW,218,0.0,0.0,91,0.00,,,0.00,weatherlink.com 1.10,2013-08-02 08:42:00,
2013-08-02 04:57:00,76.7,74.0,29.85,SSW,201,0.0,0.0,91,0.00,,,0.00,weatherlink.com 1.10,2013-08-02 08:57:00,
2013-08-02 05:12:00,76.8,74.0,29.85,SSW,209,0.0,0.0,91,0.00,,,0.00,weatherlink.com 1.10,2013-08-02 09:12:00,
2013-08-02 05:27:00,76.9,74.0,29.85,SW,219,0.0,0.0,91,0.00,,,0.00,weatherlink.com 1.10,2013-08-02 09:27:00,
2013-08-02 05:42:00,77.0,74.0,29.86,SW,217,0.0,0.0,90,0.00,,,0.00,weatherlink.com 1.10,2013-08-02 09:42:00,
2013-08-02 05:57:00,77.0,74.0,29.87,SW,235,0.0,0.0,90,0.00,,,0.00,weatherlink.com 1.10,2013-08-02 09:57:00,
2013-08-02 06:12:00,76.9,74.0,29.87,SW,218,0.0,0.0,90,0.00,,,0.00,weatherlink.com 1.10,2013-08-02 10:12:00,
2013-08-02 06:27:00,77.0,74.0,29.87,SW,219,0.0,0.0,91,0.00,,,0.00,weatherlink.com 1.10,2013-08-02 10:27:00,
2013-08-02 06:42:00,76.9,74.0,29.87,SSW,211,0.0,0.0,91,0.00,,,0.00,weatherlink.com 1.10,2013-08-02 10:42:00,
2013-08-02 06:57:00,76.7,74.0,29.88,SSW,195,0.0,0.0,91,0.00,,,0.00,weatherlink.com 1.10,2013-08-02 10:57:00,
2013-08-02 07:12:00,77.1,75.0,29.88,ENE,77,0.0,0.0,92,0.00,,,0.00,weatherlink.com 1.10,2013-08-02 11:12:00,
2013-08-02 07:27:00,77.3,75.0,29.88,SSE,152,0.0,0.0,91,0.00,,,0.00,weatherlink.com 1.10,2013-08-02 11:27:00,
2013-08-02 07:42:00,78.6,75.0,29.88,ESE,115,0.0,0.0,88,0.00,,,0.00,weatherlink.com 1.10,2013-08-02 11:42:00,
2013-08-02 07:57:00,79.1,75.0,29.89,SSE,149,1.0,2.0,87,0.00,,,0.00,weatherlink.com 1.10,2013-08-02 11:57:00,
2013-08-02 08:13:00,80.7,76.0,29.89,SSE,149,0.0,1.0,84,0.00,,,0.00,weatherlink.com 1.10,2013-08-02 12:13:00,
2013-08-02 08:28:00,81.7,75.0,29.89,SSE,159,1.0,1.0,79,0.00,,,0.00,weatherlink.com 1.10,2013-08-02 12:28:00,
2013-08-02 08:42:00,82.9,75.0,29.89,SE,142,2.0,2.0,76,0.00,,,0.00,weatherlink.com 1.10,2013-08-02 12:42:00,
2013-08-02 08:57:00,82.9,74.0,29.89,SSW,205,1.0,3.0,74,0.00,,,0.00,weatherlink.com 1.10,2013-08-02 12:57:00,
2013-08-02 09:13:00,83.7,74.0,29.90,WSW,255,1.0,3.0,73,0.00,,,0.00,weatherlink.com 1.10,2013-08-02 13:13:00,
2013-08-02 09:28:00,84.6,74.0,29.91,SSE,165,2.0,6.0,71,0.00,,,0.00,weatherlink.com 1.10,2013-08-02 13:28:00,
2013-08-02 09:43:00,83.9,74.0,29.91,WSW,238,2.0,6.0,73,0.00,,,0.00,weatherlink.com 1.10,2013-08-02 13:43:00,
2013-08-02 09:59:00,83.6,74.0,29.91,SW,236,3.0,7.0,72,0.00,,,0.00,weatherlink.com 1.10,2013-08-02 13:59:00,
2013-08-02 10:14:00,83.8,74.0,29.91,WSW,248,3.0,5.0,72,0.00,,,0.00,weatherlink.com 1.10,2013-08-02 14:14:00,
2013-08-02 10:28:00,86.2,74.0,29.92,NNE,23,2.0,4.0,68,0.00,,,0.00,weatherlink.com 1.10,2013-08-02 14:28:00,
2013-08-02 10:44:00,85.0,73.0,29.93,ENE,77,2.0,4.0,68,0.00,,,0.00,weatherlink.com 1.10,2013-08-02 14:44:00,
2013-08-02 10:59:00,85.9,73.0,29.93,East,88,5.0,7.0,66,0.00,,,0.00,weatherlink.com 1.10,2013-08-02 14:59:00,
2013-08-02 11:14:00,84.8,74.0,29.93,NE,53,4.0,7.0,69,0.00,,,0.00,weatherlink.com 1.10,2013-08-02 15:14:00,
2013-08-02 11:29:00,86.5,73.0,29.93,ENE,65,3.0,6.0,64,0.00,,,0.00,weatherlink.com 1.10,2013-08-02 15:29:00,
2013-08-02 11:45:00,86.0,73.0,29.93,North,352,3.0,5.0,65,0.00,,,0.00,weatherlink.com 1.10,2013-08-02 15:45:00,
2013-08-02 12:00:00,85.9,73.0,29.93,NNE,32,0.0,4.0,66,0.00,,,0.00,weatherlink.com 1.10,2013-08-02 16:00:00,
2013-08-02 12:15:00,85.5,73.0,29.94,East,80,0.0,6.0,66,0.00,,,0.00,weatherlink.com 1.10,2013-08-02 16:15:00,
2013-08-02 12:31:00,85.4,73.0,29.93,ENE,68,3.0,6.0,66,0.00,,,0.00,weatherlink.com 1.10,2013-08-02 16:31:00,
2013-08-02 12:45:00,87.0,73.0,29.93,NE,53,0.0,7.0,63,0.00,,,0.00,weatherlink.com 1.10,2013-08-02 16:45:00,
2013-08-02 13:00:00,87.9,71.0,29.92,East,82,2.0,7.0,58,0.00,,,0.00,weatherlink.com 1.10,2013-08-02 17:00:00,
2013-08-02 13:15:00,88.4,72.0,29.92,ENE,71,1.0,6.0,58,0.00,,,0.00,weatherlink.com 1.10,2013-08-02 17:15:00,
2013-08-02 13:30:00,89.9,72.0,29.91,ENE,66,7.0,7.0,55,0.00,,,0.00,weatherlink.com 1.10,2013-08-02 17:30:00,
2013-08-02 13:46:00,90.1,71.0,29.91,NW,315,3.0,7.0,53,0.00,,,0.00,weatherlink.com 1.10,2013-08-02 17:46:00,
2013-08-02 14:02:00,89.9,70.0,29.90,North,1,1.0,7.0,52,0.00,,,0.00,weatherlink.com 1.10,2013-08-02 18:02:00,
2013-08-02 14:16:00,90.0,71.0,29.90,ENE,72,5.0,7.0,54,0.00,,,0.00,weatherlink.com 1.10,2013-08-02 18:16:00,
2013-08-02 14:31:00,90.5,70.0,29.90,ESE,105,2.0,5.0,51,0.00,,,0.00,weatherlink.com 1.10,2013-08-02 18:31:00,